Regional Weather Roundup
Issued by NWS Goodland, KS

Home | Current Version | Previous Version | Text Only | Print | Product List | Glossary On
Versions: 1 2 3 4 5 6 7 8 9 10 11 12 13 14 15 16 17 18 19 20 21 22 23 24 25 26 27 28 29 30 31 32 33 34 35 36 37 38 39 40 41 42 43 44 45 46 47 48 49 50
000
ASUS43 KGLD 311808
RWRGLD

GOODLAND FORECAST AREA HOURLY WEATHER ROUNDUP
NATIONAL WEATHER SERVICE GOODLAND KS
1200 PM MDT FRI OCT 31 2014

...OFFICIAL OBSERVATIONS...

CITY           SKY/WX    TMP DP  RH WIND       PRES   REMARKS
GOODLAND KS    SUNNY     41  29  62 SE12      30.45F
HILL CITY KS   SUNNY     41  24  51 E8        30.53F
IMPERIAL NEB   SUNNY     39  28  64 SE15      30.45F
MCCOOK NEB     SUNNY     40  23  50 SE9       30.51F
AKRON CO       SUNNY     47  28  47 SE25G35   30.33F
BURLINGTON CO  SUNNY     45  27  49 SE17G24   30.41F
LIMON CO       SUNNY     47  28  47 S26G35    30.34F
$$

...UNOFFICIAL OBSERVATIONS...

CITY           SKY/WX    TMP DP  RH WIND       PRES   REMARKS
COLBY KS       SUNNY     39  30  70 E12       30.47F
NORTON KS      SUNNY     39  18  41 E8        30.50F
SHARON SPRINGS   N/A     42  30  63 SE10        N/A
TRENTON NEB      N/A     41  32  70 SE12        N/A
$$



USA.gov is the U.S. government's official web portal to all federal, state and local government web resources and services.